STARLINK-33788, 63589

Orbit data source: Space-Track

STARLINK-33788, 63589 is a payload satellite owned by SpaceX/Seattle (US) in LEO that was launched on Mon, 14 Apr 2025 UTC via an FALCON 9 launch vehicle from the Air Force Eastern Test Range (AFETR). Payload-class satellites include a variety of spacecraft equipped with specific instruments for various scientific and technological missions. These include communications satellites like Starlink; space stations such as the ISS; scientific satellites like the Hubble; Earth observation satellites from companies like Planet Labs, Umbra, and HawkEye 360; GPS; miniature CubeSats for education and research; and military/defense satellites.

Loading next visibility...
Identifier
63589, 2025-076W
Orbit
LEO
Country
Flag of USUS
Related business
Manufacturer
SpaceX/Seattle
Mission
Operational Commercial Communications
Bus & Motor
STARLINK V2MO, Unknown motor
Mass
575 kg wet, ~530 kg dry
Launch date (UTC)
2025-04-14 (1 year ago)
Launch vehicle
FALCON 9
Launch site
Air Force Eastern Test Range (AFETR)
Object type
Payload
Rocket body
Debris
Shape & HBR
Box + 2 Pan, 17.7 m
Radar Cross Section
36.964 m², Large (>1 m²)

Expand to show TLE details & history
Last TLE update: 9 hours ago

TLE from 9 hours ago
0 STARLINK-33788
1 63589U 25076W   26126.92247213  .00014437  00000-0  53341-3 0  9996
2 63589  43.0033 353.0647 0000944 257.1898 102.8848 15.27561727 60731
Epoch: 2026-05-06T22:08Z
TLE epoch observation values (Epoch: 2026-05-06T22:08:21.592Z)
Latitude
-0.00001°
Longitude
156.19871°
Altitude
483.024 km
Speed
7.626 km/s
True Right ascension
23h 32m 15s
True Declination
0° 00' 00"
Sunlit
Object was in daylight at epoch
Visualization orbit readout
Latitude
Unknown
Longitude
Unknown
Altitude
Unknown
Speed
Unknown
Apparent Right ascension
Unknown
Apparent Declination
Unknown
Sunlit
N/A
Visualization observer readout
Local Sidereal Time
15:34:43
Azimuth
Unknown
Elevation
Unknown
Doppler factor
Unknown
Orbital elements
Apogee altitude
485.696 km
Perigee altitude
484.401 km
Semi-major axis
6,863.185 km
Eccentricity
0.00009
Inclination
43.0033°
RAAN
353.0647°
Arg. of periapsis
257.1898°
True anomaly
102.89534°
Mean anomaly
102.8848°
Eccentric anomaly
102.89007°
Mean motion
3.81728 °/min
Orbital period
94.31 mins
BSTAR
0.00053341
Loading maneuver chart data...
Computing Atmospheric mass density...
Loading historical data...
Loading historical data...
Loading historical data...
Loading historical data...
Loading historical data...
Loading historical data...
Loading historical data...

Documentation

Showing up to 5 results
|